| time (UTC) | temp F | wind direction | speed MPH | gust MPH | rain 1hr in | rain 24hr in | rain mn in | humidity % | barometer mb |
| 20260831231454 | 91 | 165 | 4.0 | 11.0 | 0.00 | 0.00 | 0.00 | 22 | 1013.7 |
| 20260831231052 | 91 | 135 | 10.0 | 12.0 | 0.00 | 0.00 | 0.00 | 21 | 1013.7 |
| 20260831230250 | 90 | 144 | 5.0 | 11.0 | 0.00 | 0.00 | 0.00 | 22 | 1013.9 |
| 20260831225848 | 90 | 139 | 9.0 | 11.0 | 0.00 | 0.00 | 0.00 | 22 | 1013.8 |
| 20260831225447 | 90 | 135 | 10.0 | 12.0 | 0.00 | 0.00 | 0.00 | 21 | 1013.8 |
| 20260831224644 | 90 | 130 | 9.0 | 12.0 | 0.00 | 0.00 | 0.00 | 22 | 1013.9 |
| 20260831224242 | 90 | 144 | 6.0 | 14.0 | 0.00 | 0.00 | 0.00 | 22 | 1014.1 |
| 20260831223841 | 92 | 141 | 10.0 | 12.0 | 0.00 | 0.00 | 0.00 | 22 | 1014.0 |
| 20260831223440 | 91 | 177 | 7.0 | 12.0 | 0.00 | 0.00 | 0.00 | 22 | 1013.9 |
| 20260831223039 | 92 | 180 | 7.0 | 12.0 | 0.00 | 0.00 | 0.00 | 22 | 1013.9 |
| 20260831222638 | 92 | 148 | 8.0 | 12.0 | 0.00 | 0.00 | 0.00 | 22 | 1014.1 |
| 20260831222236 | 92 | 144 | 9.0 | 10.0 | 0.00 | 0.00 | 0.00 | 22 | 1014.1 |
| 20260831221835 | 92 | 135 | 9.0 | 11.0 | 0.00 | 0.00 | 0.00 | 22 | 1014.1 |
| 20260831221434 | 92 | 144 | 7.0 | 13.0 | 0.00 | 0.00 | 0.00 | 22 | 1014.2 |
| 20260831221033 | 93 | 137 | 13.0 | 13.0 | 0.00 | 0.00 | 0.00 | 22 | 1014.2 |
| 20260831220633 | 93 | 189 | 6.0 | 12.0 | 0.00 | 0.00 | 0.00 | 22 | 1014.3 |
| 20260831220230 | 93 | 171 | 3.0 | 10.0 | 0.00 | 0.00 | 0.00 | 21 | 1014.3 |
| 20260831215828 | 94 | 195 | 9.0 | 9.0 | 0.00 | 0.00 | 0.00 | 22 | 1014.3 |
| 20260831215427 | 93 | 162 | 4.0 | 9.0 | 0.00 | 0.00 | 0.00 | 21 | 1014.3 |
| 20260831215026 | 93 | 157 | 3.0 | 8.0 | 0.00 | 0.00 | 0.00 | 22 | 1014.4 |
| 20260831214629 | 94 | 119 | 9.0 | 9.0 | 0.00 | 0.00 | 0.00 | 22 | 1014.4 |
| 20260831213822 | 93 | 155 | 3.0 | 11.0 | 0.00 | 0.00 | 0.00 | 22 | 1014.5 |
| 20260831212618 | 93 | 162 | 4.0 | 12.0 | 0.00 | 0.00 | 0.00 | 22 | 1014.6 |
| 20260831211816 | 94 | 127 | 6.0 | 11.0 | 0.00 | 0.00 | 0.00 | 22 | 1014.7 |
| 20260831211415 | 94 | 137 | 9.0 | 10.0 | 0.00 | 0.00 | 0.00 | 22 | 1014.7 |
| 20260831211013 | 94 | 148 | 4.0 | 11.0 | 0.00 | 0.00 | 0.00 | 22 | 1014.7 |
| 20260831210210 | 95 | 162 | 6.0 | 12.0 | 0.00 | 0.00 | 0.00 | 22 | 1014.8 |
| 20260831205809 | 95 | 186 | 7.0 | 11.0 | 0.00 | 0.00 | 0.00 | 23 | 1014.8 |
| 20260831205408 | 95 | 182 | 7.0 | 11.0 | 0.00 | 0.00 | 0.00 | 23 | 1014.8 |
| 20260831203803 | 95 | 173 | 6.0 | 11.0 | 0.00 | 0.00 | 0.00 | 23 | 1014.9 |
| 20260831203402 | 95 | 186 | 11.0 | 11.0 | 0.00 | 0.00 | 0.00 | 23 | 1014.9 |
| 20260831203000 | 95 | 190 | 6.0 | 13.0 | 0.00 | 0.00 | 0.00 | 23 | 1014.8 |
| 20260831202559 | 95 | 173 | 6.0 | 12.0 | 0.00 | 0.00 | 0.00 | 23 | 1014.9 |
| 20260831202157 | 96 | 163 | 3.0 | 9.0 | 0.00 | 0.00 | 0.00 | 23 | 1014.9 |
| 20260831200954 | 96 | 176 | 4.0 | 8.0 | 0.00 | 0.00 | 0.00 | 24 | 1014.9 |
| 20260831200553 | 95 | 164 | 7.0 | 9.0 | 0.00 | 0.00 | 0.00 | 24 | 1014.9 |
| 20260831200151 | 95 | 177 | 6.0 | 10.0 | 0.00 | 0.00 | 0.00 | 24 | 1014.9 |
| 20260831195749 | 95 | 192 | 8.0 | 9.0 | 0.00 | 0.00 | 0.00 | 24 | 1015.0 |
| 20260831195348 | 95 | 182 | 6.0 | 10.0 | 0.00 | 0.00 | 0.00 | 25 | 1015.0 |
| 20260831194948 | 95 | 166 | 5.0 | 10.0 | 0.00 | 0.00 | 0.00 | 25 | 1015.0 |
| 20260831194546 | 95 | 177 | 5.0 | 11.0 | 0.00 | 0.00 | 0.00 | 25 | 1015.1 |
| 20260831193342 | 92 | 117 | 9.0 | 10.0 | 0.00 | 0.00 | 0.00 | 26 | 1015.2 |
| 20260831192539 | 93 | 182 | 4.0 | 8.0 | 0.00 | 0.00 | 0.00 | 26 | 1015.4 |
| 20260831191737 | 93 | 132 | 8.0 | 9.0 | 0.00 | 0.00 | 0.00 | 27 | 1015.4 |
| 20260831191336 | 93 | 162 | 3.0 | 11.0 | 0.00 | 0.00 | 0.00 | 27 | 1015.4 |
| 20260831190934 | 94 | 182 | 3.0 | 7.0 | 0.00 | 0.00 | 0.00 | 27 | 1015.5 |
| 20260831190533 | 93 | 130 | 4.0 | 7.0 | 0.00 | 0.00 | 0.00 | 27 | 1015.4 |
| 20260831185330 | 91 | 135 | 4.0 | 6.0 | 0.00 | 0.00 | 0.00 | 28 | 1015.4 |
| 20260831184526 | 91 | 130 | 7.0 | 8.0 | 0.00 | 0.00 | 0.00 | 28 | 1015.4 |
| 20260831184125 | 91 | 144 | 4.0 | 7.0 | 0.00 | 0.00 | 0.00 | 28 | 1015.5 |
| 20260831183724 | 91 | 227 | 5.0 | 6.0 | 0.00 | 0.00 | 0.00 | 28 | 1015.5 |
| 20260831183323 | 90 | 196 | 1.0 | 6.0 | 0.00 | 0.00 | 0.00 | 28 | 1015.6 |
| 20260831182922 | 89 | 170 | 3.0 | 7.0 | 0.00 | 0.00 | 0.00 | 28 | 1015.6 |
| 20260831182521 | 87 | 208 | 0.0 | 9.0 | 0.00 | 0.00 | 0.00 | 29 | 1015.6 |
| 20260831181723 | 88 | 144 | 8.0 | 8.0 | 0.00 | 0.00 | 0.00 | 29 | 1015.7 |
| 20260831181316 | 87 | 135 | 9.0 | 10.0 | 0.00 | 0.00 | 0.00 | 29 | 1015.6 |
| 20260831180915 | 89 | 123 | 9.0 | 10.0 | 0.00 | 0.00 | 0.00 | 29 | 1015.6 |
| 20260831180514 | 89 | 186 | 4.0 | 8.0 | 0.00 | 0.00 | 0.00 | 29 | 1015.7 |
| 20260831180114 | 87 | 180 | 7.0 | 9.0 | 0.00 | 0.00 | 0.00 | 29 | 1015.7 |
| 20260831175713 | 86 | 50 | 4.0 | 11.0 | 0.00 | 0.00 | 0.00 | 30 | 1015.7 |
| 20260831175310 | 88 | 135 | 9.0 | 9.0 | 0.00 | 0.00 | 0.00 | 30 | 1015.7 |
| 20260831174909 | 88 | 175 | 4.0 | 7.0 | 0.00 | 0.00 | 0.00 | 30 | 1015.7 |
| 20260831174508 | 88 | 67 | 1.0 | 9.0 | 0.00 | 0.00 | 0.00 | 30 | 1015.7 |
| 20260831174107 | 86 | 135 | 5.0 | 7.0 | 0.00 | 0.00 | 0.00 | 30 | 1015.7 |
| 20260831173708 | 86 | 105 | 3.0 | 7.0 | 0.00 | 0.00 | 0.00 | 31 | 1015.7 |
| 20260831173706 | 86 | 105 | 3.0 | 7.0 | 0.00 | 0.00 | 0.00 | 31 | 1015.7 |
| 20260831173303 | 88 | 117 | 7.0 | 7.0 | 0.00 | 0.00 | 0.00 | 31 | 1015.7 |
| 20260831172903 | 87 | 195 | 1.0 | 6.0 | 0.00 | 0.00 | 0.00 | 31 | 1015.8 |
| 20260831172501 | 86 | 126 | 6.0 | 9.0 | 0.00 | 0.00 | 0.00 | 32 | 1015.6 |
| 20260831172100 | 87 | 185 | 5.0 | 5.0 | 0.00 | 0.00 | 0.00 | 33 | 1015.7 |
| 20260831171659 | 86 | 137 | 4.0 | 7.0 | 0.00 | 0.00 | 0.00 | 33 | 1015.7 |
| 20260831171257 | 85 | 191 | 1.0 | 6.0 | 0.00 | 0.00 | 0.00 | 33 | 1015.6 |
| 20260831170855 | 84 | 117 | 6.0 | 7.0 | 0.00 | 0.00 | 0.00 | 33 | 1015.7 |
| 20260831170454 | 84 | 119 | 6.0 | 7.0 | 0.00 | 0.00 | 0.00 | 34 | 1015.7 |
| 20260831170054 | 85 | 148 | 5.0 | 9.0 | 0.00 | 0.00 | 0.00 | 34 | 1015.7 |
| 20260831165251 | 84 | 56 | 0.0 | 7.0 | 0.00 | 0.00 | 0.00 | 35 | 1015.6 |
| 20260831164850 | 83 | 135 | 7.0 | 7.0 | 0.00 | 0.00 | 0.00 | 36 | 1015.5 |
| 20260831164448 | 83 | 135 | 7.0 | 7.0 | 0.00 | 0.00 | 0.00 | 36 | 1015.5 |
| 20260831164048 | 84 | 101 | 2.0 | 4.0 | 0.00 | 0.00 | 0.00 | 37 | 1015.5 |
| 20260831163646 | 82 | 301 | 1.0 | 7.0 | 0.00 | 0.00 | 0.00 | 37 | 1015.5 |
| 20260831162843 | 82 | 117 | 6.0 | 9.0 | 0.00 | 0.00 | 0.00 | 38 | 1015.4 |
| 20260831161639 | 82 | 308 | 1.0 | 10.0 | 0.00 | 0.00 | 0.00 | 40 | 1015.5 |
| 20260831161238 | 82 | 109 | 1.0 | 5.0 | 0.00 | 0.00 | 0.00 | 40 | 1015.5 |
| 20260831160837 | 81 | 135 | 5.0 | 5.0 | 0.00 | 0.00 | 0.00 | 41 | 1015.5 |
| 20260831160436 | 80 | 96 | 4.0 | 4.0 | 0.00 | 0.00 | 0.00 | 42 | 1015.4 |
| 20260831160034 | 78 | 51 | 2.0 | 6.0 | 0.00 | 0.00 | 0.00 | 42 | 1015.4 |
| 20260831155632 | 78 | 95 | 1.0 | 6.0 | 0.00 | 0.00 | 0.00 | 42 | 1015.5 |
| 20260831154429 | 77 | 37 | 1.0 | 7.0 | 0.00 | 0.00 | 0.00 | 43 | 1015.4 |
| 20260831153627 | 76 | 121 | 1.0 | 4.0 | 0.00 | 0.00 | 0.00 | 44 | 1015.3 |
| 20260831153225 | 76 | 87 | 5.0 | 6.0 | 0.00 | 0.00 | 0.00 | 45 | 1015.4 |
| 20260831152824 | 76 | 74 | 3.0 | 4.0 | 0.00 | 0.00 | 0.00 | 44 | 1015.3 |
| 20260831151620 | 75 | 135 | 5.0 | 6.0 | 0.00 | 0.00 | 0.00 | 45 | 1015.2 |
| 20260831151219 | 74 | 157 | 1.0 | 3.0 | 0.00 | 0.00 | 0.00 | 46 | 1015.2 |
| 20260831150817 | 74 | 83 | 3.0 | 3.0 | 0.00 | 0.00 | 0.00 | 46 | 1015.3 |
| 20260831150416 | 74 | 56 | 0.0 | 1.0 | 0.00 | 0.00 | 0.00 | 46 | 1015.2 |
| 20260831145614 | 71 | 230 | 0.0 | 0.0 | 0.00 | 0.00 | 0.00 | 47 | 1015.3 |
| 20260831145213 | 70 | 40 | 0.0 | 1.0 | 0.00 | 0.00 | 0.00 | 48 | 1015.3 |
| 20260831144811 | 69 | 45 | 0.0 | 0.0 | 0.00 | 0.00 | 0.00 | 48 | 1015.2 |
| 20260831144409 | 68 | 40 | 0.0 | 0.0 | 0.00 | 0.00 | 0.00 | 48 | 1015.1 |
| 20260831143607 | 67 | 38 | 0.0 | 0.0 | 0.00 | 0.00 | 0.00 | 49 | 1015.1 |
| 20260831142805 | 66 | 42 | 0.0 | 1.0 | 0.00 | 0.00 | 0.00 | 49 | 1015.1 |
| 20260831142403 | 65 | 344 | 0.0 | 1.0 | 0.00 | 0.00 | 0.00 | 49 | 1014.8 |
| 20260831142001 | 65 | 42 | 1.0 | 1.0 | 0.00 | 0.00 | 0.00 | 49 | 1014.9 |
| 20260831141600 | 64 | 301 | 0.0 | 0.0 | 0.00 | 0.00 | 0.00 | 50 | 1014.8 |
| 20260831140758 | 63 | 306 | 0.0 | 0.0 | 0.00 | 0.00 | 0.00 | 50 | 1014.8 |
| 20260831135955 | 62 | 301 | 0.0 | 0.0 | 0.00 | 0.00 | 0.00 | 50 | 1014.7 |
| 20260831135554 | 62 | 308 | 0.0 | 0.0 | 0.00 | 0.00 | 0.00 | 50 | 1014.5 |
| 20260831135153 | 62 | 301 | 0.0 | 0.0 | 0.00 | 0.00 | 0.00 | 50 | 1014.5 |
| 20260831134752 | 62 | 227 | 0.0 | 0.0 | 0.00 | 0.00 | 0.00 | 49 | 1014.4 |
| 20260831134350 | 61 | 236 | 0.0 | 0.0 | 0.00 | 0.00 | 0.00 | 49 | 1014.4 |
| 20260831133146 | 62 | 274 | 0.0 | 0.0 | 0.00 | 0.00 | 0.00 | 49 | 1014.3 |
| 20260831132344 | 62 | 270 | 0.0 | 1.0 | 0.00 | 0.00 | 0.00 | 49 | 1014.3 |
| 20260831131943 | 62 | 283 | 1.0 | 1.0 | 0.00 | 0.00 | 0.00 | 49 | 1014.3 |
| 20260831131542 | 62 | 330 | 0.0 | 0.0 | 0.00 | 0.00 | 0.00 | 49 | 1014.4 |
| 20260831131140 | 62 | 335 | 0.0 | 0.0 | 0.00 | 0.00 | 0.00 | 49 | 1014.4 |
| 20260831130738 | 62 | 308 | 0.0 | 1.0 | 0.00 | 0.00 | 0.00 | 48 | 1014.3 |
| 20260831130337 | 62 | 283 | 1.0 | 1.0 | 0.00 | 0.00 | 0.00 | 48 | 1014.3 |
| 20260831125936 | 62 | 310 | 0.0 | 0.0 | 0.00 | 0.00 | 0.00 | 48 | 1014.3 |
| 20260831125134 | 62 | 297 | 0.0 | 0.0 | 0.00 | 0.00 | 0.00 | 48 | 1014.2 |
| 20260831124733 | 62 | 308 | 0.0 | 0.0 | 0.00 | 0.00 | 0.00 | 48 | 1014.2 |
| 20260831124331 | 62 | 279 | 0.0 | 1.0 | 0.00 | 0.00 | 0.00 | 48 | 1014.2 |
| 20260831123127 | 63 | 308 | 0.0 | 0.0 | 0.00 | 0.00 | 0.00 | 48 | 1014.2 |
| 20260831122726 | 63 | 303 | 0.0 | 0.0 | 0.00 | 0.00 | 0.00 | 48 | 1014.1 |
| 20260831122325 | 63 | 233 | 0.0 | 0.0 | 0.00 | 0.00 | 0.00 | 47 | 1014.2 |
| 20260831121923 | 63 | 235 | 0.0 | 0.0 | 0.00 | 0.00 | 0.00 | 47 | 1014.1 |
| 20260831121522 | 63 | 333 | 0.0 | 0.0 | 0.00 | 0.00 | 0.00 | 47 | 1014.2 |
| 20260831121121 | 64 | 328 | 0.0 | 0.0 | 0.00 | 0.00 | 0.00 | 47 | 1014.1 |
| 20260831120720 | 64 | 288 | 0.0 | 0.0 | 0.00 | 0.00 | 0.00 | 47 | 1014.2 |
| 20260831120318 | 64 | 279 | 0.0 | 0.0 | 0.00 | 0.00 | 0.00 | 47 | 1014.1 |
| 20260831115918 | 64 | 283 | 0.0 | 0.0 | 0.00 | 0.00 | 0.00 | 47 | 1014.1 |
| 20260831115515 | 64 | 297 | 0.0 | 0.0 | 0.00 | 0.00 | 0.00 | 47 | 1014.1 |
| 20260831113911 | 64 | 270 | 0.0 | 0.0 | 0.00 | 0.00 | 0.00 | 46 | 1014.1 |
| 20260831113509 | 65 | 270 | 0.0 | 0.0 | 0.00 | 0.00 | 0.00 | 46 | 1014.1 |
| 20260831113108 | 65 | 237 | 0.0 | 1.0 | 0.00 | 0.00 | 0.00 | 46 | 1014.1 |
| 20260831112706 | 65 | 283 | 1.0 | 1.0 | 0.00 | 0.00 | 0.00 | 46 | 1014.1 |
| 20260831112307 | 65 | 303 | 0.0 | 0.0 | 0.00 | 0.00 | 0.00 | 46 | 1014.2 |
| 20260831111102 | 65 | 231 | 0.0 | 0.0 | 0.00 | 0.00 | 0.00 | 45 | 1014.2 |
| 20260831110259 | 65 | 333 | 0.0 | 1.0 | 0.00 | 0.00 | 0.00 | 45 | 1014.3 |
| 20260831105900 | 66 | 344 | 1.0 | 1.0 | 0.00 | 0.00 | 0.00 | 45 | 1014.3 |
| 20260831105456 | 66 | 328 | 0.0 | 0.0 | 0.00 | 0.00 | 0.00 | 45 | 1014.3 |
| 20260831105055 | 66 | 42 | 0.0 | 1.0 | 0.00 | 0.00 | 0.00 | 45 | 1014.3 |
| 20260831104656 | 0 | 321 | 0.0 | 2.0 | 0.00 | 0.00 | 0.00 | 45 | 1014.3 |
| 20260831104654 | 66 | 321 | 0.0 | 2.0 | 0.00 | 0.00 | 0.00 | 45 | 1014.3 |
| 20260831104252 | 66 | 10 | 1.0 | 2.0 | 0.00 | 0.00 | 0.00 | 45 | 1014.3 |
| 20260831103852 | 666 | 40 | 2.0 | 2.0 | 0.00 | 0.00 | 0.00 | 45 | 101.4 |
| 20260831103450 | 66 | 189 | 0.0 | 2.0 | 0.00 | 0.00 | 0.00 | 45 | 1014.2 |
| 20260831103050 | 66 | 135 | 2.0 | 2.0 | 0.00 | 0.00 | 0.00 | 45 | 1014.3 |
| 20260831102246 | 66 | 135 | 1.0 | 2.0 | 0.00 | 0.00 | 0.00 | 45 | 1014.2 |
| 20260831101845 | 67 | 121 | 2.0 | 2.0 | 0.00 | 0.00 | 0.00 | 45 | 1014.2 |
| 20260831101042 | 67 | 135 | 2.0 | 2.0 | 0.00 | 0.00 | 0.00 | 44 | 1014.4 |
| 20260831100641 | 67 | 139 | 2.0 | 2.0 | 0.00 | 0.00 | 0.00 | 44 | 1014.4 |
| 20260831100240 | 67 | 135 | 2.0 | 2.0 | 0.00 | 0.00 | 0.00 | 44 | 1014.3 |
| 20260831095437 | 67 | 182 | 1.0 | 2.0 | 0.00 | 0.00 | 0.00 | 44 | 1014.2 |
| 20260831095036 | 67 | 148 | 1.0 | 2.0 | 0.00 | 0.00 | 0.00 | 44 | 1014.2 |
| 20260831094635 | 67 | 173 | 1.0 | 2.0 | 0.00 | 0.00 | 0.00 | 44 | 1014.3 |
| 20260831094233 | 67 | 135 | 1.0 | 1.0 | 0.00 | 0.00 | 0.00 | 44 | 1014.3 |
| 20260831093832 | 67 | 135 | 0.0 | 0.0 | 0.00 | 0.00 | 0.00 | 44 | 1014.3 |
| 20260831093431 | 67 | 135 | 0.0 | 1.0 | 0.00 | 0.00 | 0.00 | 44 | 1014.3 |
| 20260831093029 | 67 | 135 | 0.0 | 1.0 | 0.00 | 0.00 | 0.00 | 44 | 1014.2 |
| 20260831092632 | 67 | 137 | 1.0 | 2.0 | 0.00 | 0.00 | 0.00 | 44 | 1014.2 |
| 20260831091826 | 67 | 135 | 2.0 | 4.0 | 0.00 | 0.00 | 0.00 | 44 | 1014.1 |
| 20260831090221 | 67 | 177 | 1.0 | 3.0 | 0.00 | 0.00 | 0.00 | 43 | 1014.1 |
| 20260831085819 | 67 | 135 | 0.0 | 2.0 | 0.00 | 0.00 | 0.00 | 43 | 1014.1 |
| 20260831085418 | 67 | 189 | 1.0 | 3.0 | 0.00 | 0.00 | 0.00 | 43 | 1014.1 |
| 20260831084616 | 68 | 135 | 2.0 | 3.0 | 0.00 | 0.00 | 0.00 | 43 | 1014.2 |
| 20260831083812 | 68 | 186 | 0.0 | 2.0 | 0.00 | 0.00 | 0.00 | 43 | 1014.2 |
| 20260831083644 | 68 | 175 | 2.0 | 3.0 | 0.00 | 0.00 | 0.00 | 43 | 1014.2 |
| 20260831083414 | 68 | 175 | 2.0 | 3.0 | 0.00 | 0.00 | 0.00 | 43 | 1014.2 |
| 20260831082609 | 68 | 191 | 0.0 | 2.0 | 0.00 | 0.00 | 0.00 | 42 | 1014.2 |
| 20260831082208 | 68 | 137 | 2.0 | 3.0 | 0.00 | 0.00 | 0.00 | 42 | 1014.1 |
| 20260831081806 | 68 | 135 | 2.0 | 2.0 | 0.00 | 0.00 | 0.00 | 42 | 1014.1 |
| 20260831081441 | 68 | 157 | 1.0 | 3.0 | 0.00 | 0.00 | 0.00 | 42 | 1014.0 |
| 20260831081406 | 68 | 157 | 1.0 | 3.0 | 0.00 | 0.00 | 0.00 | 42 | 1014.0 |
| 20260831080603 | 68 | 135 | 2.0 | 2.0 | 0.00 | 0.00 | 0.00 | 42 | 1014.0 |
| 20260831080201 | 68 | 139 | 2.0 | 2.0 | 0.00 | 0.00 | 0.00 | 42 | 1014.0 |
| 20260831075800 | 68 | 135 | 2.0 | 2.0 | 0.00 | 0.00 | 0.00 | 42 | 1013.9 |
| 20260831075358 | 68 | 114 | 1.0 | 2.0 | 0.00 | 0.00 | 0.00 | 42 | 1013.9 |
| 20260831074957 | 68 | 135 | 1.0 | 2.0 | 0.00 | 0.00 | 0.00 | 42 | 1014.0 |
| 20260831074557 | 69 | 135 | 1.0 | 2.0 | 0.00 | 0.00 | 0.00 | 42 | 1013.9 |
| 20260831074155 | 69 | 135 | 1.0 | 2.0 | 0.00 | 0.00 | 0.00 | 42 | 1014.0 |
| 20260831073754 | 69 | 135 | 2.0 | 3.0 | 0.00 | 0.00 | 0.00 | 41 | 1013.8 |
| 20260831073353 | 69 | 117 | 3.0 | 3.0 | 0.00 | 0.00 | 0.00 | 41 | 1013.8 |
| 20260831072951 | 69 | 137 | 2.0 | 3.0 | 0.00 | 0.00 | 0.00 | 41 | 1013.7 |
| 20260831072549 | 69 | 135 | 3.0 | 4.0 | 0.00 | 0.00 | 0.00 | 41 | 1013.7 |
| 20260831072148 | 69 | 126 | 3.0 | 3.0 | 0.00 | 0.00 | 0.00 | 41 | 1013.7 |
| 20260831071747 | 69 | 135 | 1.0 | 2.0 | 0.00 | 0.00 | 0.00 | 41 | 1013.6 |
| 20260831071346 | 69 | 114 | 1.0 | 3.0 | 0.00 | 0.00 | 0.00 | 41 | 1013.7 |
| 20260831070946 | 69 | 137 | 1.0 | 3.0 | 0.00 | 0.00 | 0.00 | 41 | 1013.7 |
| 20260831070543 | 70 | 135 | 3.0 | 3.0 | 0.00 | 0.00 | 0.00 | 41 | 1013.7 |
| 20260831070142 | 70 | 130 | 2.0 | 3.0 | 0.00 | 0.00 | 0.00 | 40 | 1013.7 |
| 20260831065742 | 70 | 135 | 3.0 | 3.0 | 0.00 | 0.00 | 0.00 | 40 | 1013.7 |
| 20260831065340 | 70 | 135 | 2.0 | 3.0 | 0.00 | 0.00 | 0.00 | 40 | 1013.7 |
| 20260831064538 | 70 | 110 | 2.0 | 2.0 | 0.00 | 0.00 | 0.00 | 40 | 1013.8 |
| 20260831064135 | 70 | 60 | 1.0 | 2.0 | 0.00 | 0.00 | 0.00 | 40 | 1013.7 |
| 20260831063333 | 70 | 45 | 0.0 | 1.0 | 0.00 | 0.00 | 0.00 | 40 | 1013.7 |
| 20260831062932 | 71 | 40 | 0.0 | 1.0 | 0.00 | 0.00 | 0.00 | 40 | 1013.8 |
| 20260831062531 | 71 | 135 | 1.0 | 2.0 | 0.00 | 0.00 | 0.00 | 40 | 1013.7 |
| 20260831062129 | 71 | 137 | 1.0 | 2.0 | 0.00 | 0.00 | 0.00 | 39 | 1013.7 |
| 20260831061727 | 71 | 171 | 1.0 | 2.0 | 0.00 | 0.00 | 0.00 | 39 | 1013.8 |
| 20260831061326 | 72 | 135 | 2.0 | 2.0 | 0.00 | 0.00 | 0.00 | 39 | 1013.8 |
| 20260831060928 | 72 | 135 | 1.0 | 1.0 | 0.00 | 0.00 | 0.00 | 39 | 1013.8 |
| 20260831060124 | 72 | 135 | 1.0 | 1.0 | 0.00 | 0.00 | 0.00 | 39 | 1013.8 |
| 20260831055722 | 72 | 135 | 2.0 | 2.0 | 0.00 | 0.00 | 0.00 | 39 | 1013.7 |
| 20260831055323 | 72 | 135 | 1.0 | 2.0 | 0.00 | 0.00 | 0.00 | 39 | 1013.8 |
| 20260831054919 | 72 | 121 | 1.0 | 1.0 | 0.00 | 0.00 | 0.00 | 38 | 1013.7 |
| 20260831054116 | 72 | 135 | 2.0 | 2.0 | 0.00 | 0.00 | 0.00 | 38 | 1013.7 |
| 20260831053715 | 73 | 135 | 1.0 | 1.0 | 0.00 | 0.00 | 0.00 | 38 | 1013.7 |
| 20260831053314 | 73 | 159 | 0.0 | 2.0 | 0.00 | 0.00 | 0.00 | 38 | 1013.7 |
| 20260831052110 | 73 | 135 | 1.0 | 2.0 | 0.00 | 0.00 | 0.00 | 38 | 1013.7 |
| 20260831051709 | 73 | 135 | 2.0 | 3.0 | 0.00 | 0.00 | 0.00 | 37 | 1013.7 |
| 20260831050906 | 73 | 135 | 3.0 | 3.0 | 0.00 | 0.00 | 0.00 | 37 | 1013.6 |
| 20260831050103 | 73 | 135 | 2.0 | 3.0 | 0.00 | 0.00 | 0.00 | 37 | 1013.6 |
| 20260831045703 | 74 | 135 | 3.0 | 4.0 | 0.00 | 0.00 | 0.00 | 37 | 1013.7 |
| 20260831044900 | 74 | 78 | 3.0 | 3.0 | 0.00 | 0.00 | 0.00 | 36 | 1013.6 |
| 20260831044459 | 74 | 76 | 2.0 | 2.0 | 0.00 | 0.00 | 0.00 | 36 | 1013.5 |
| 20260831044057 | 74 | 49 | 1.0 | 2.0 | 0.00 | 0.00 | 0.00 | 36 | 1013.5 |
| 20260831043655 | 74 | 38 | 2.0 | 2.0 | 0.00 | 0.00 | 0.00 | 36 | 1013.4 |
| 20260831043254 | 74 | 42 | 1.0 | 1.0 | 0.00 | 0.00 | 0.00 | 36 | 1013.5 |
| 20260831042853 | 75 | 38 | 1.0 | 1.0 | 0.00 | 0.00 | 0.00 | 36 | 1013.4 |
| 20260831042452 | 75 | 60 | 1.0 | 1.0 | 0.00 | 0.00 | 0.00 | 36 | 1013.5 |
| 20260831042052 | 0 | 83 | 0.0 | 1.0 | 0.75 | 0.00 | 0.50 | 35 | 0.1 |
| 20260831041649 | 75 | 99 | 1.0 | 2.0 | 0.00 | 0.00 | 0.00 | 35 | 1013.3 |
| 20260831041248 | 75 | 112 | 2.0 | 2.0 | 0.00 | 0.00 | 0.00 | 35 | 1013.3 |
| 20260831040847 | 76 | 135 | 2.0 | 2.0 | 0.00 | 0.00 | 0.00 | 35 | 1013.3 |
| 20260831040447 | 76 | 137 | 2.0 | 2.0 | 0.00 | 0.00 | 0.00 | 35 | 1013.2 |
| 20260831040045 | 76 | 130 | 1.0 | 3.0 | 0.00 | 0.00 | 0.00 | 35 | 1013.3 |
| 20260831035643 | 76 | 123 | 3.0 | 3.0 | 0.00 | 0.00 | 0.00 | 35 | 1013.1 |
| 20260831035241 | 76 | 76 | 2.0 | 2.0 | 0.00 | 0.00 | 0.00 | 34 | 1013.1 |
| 20260831034840 | 76 | 135 | 2.0 | 3.0 | 0.00 | 0.00 | 0.00 | 34 | 1013.0 |
| 20260831034038 | 76 | 78 | 3.0 | 4.0 | 0.00 | 0.00 | 0.00 | 34 | 1012.8 |
| 20260831033235 | 76 | 130 | 4.0 | 4.0 | 0.00 | 0.00 | 0.00 | 34 | 1012.8 |
| 20260831032438 | 76 | 54 | 1.0 | 3.0 | 0.00 | 0.00 | 0.00 | 33 | 1012.6 |
| 20260831032031 | 76 | 137 | 2.0 | 2.0 | 0.00 | 0.00 | 0.00 | 33 | 1012.5 |
| 20260831031630 | 76 | 146 | 2.0 | 4.0 | 0.00 | 0.00 | 0.00 | 33 | 1012.5 |
| 20260831031230 | 76 | 153 | 3.0 | 3.0 | 0.00 | 0.00 | 0.00 | 33 | 1012.4 |
| 20260831030828 | 76 | 135 | 4.0 | 5.0 | 0.00 | 0.00 | 0.00 | 33 | 1012.4 |
| 20260831030427 | 77 | 137 | 4.0 | 6.0 | 0.00 | 0.00 | 0.00 | 32 | 1012.4 |
| 20260831030026 | 77 | 135 | 6.0 | 6.0 | 0.00 | 0.00 | 0.00 | 32 | 1012.3 |
| 20260831025222 | 77 | 135 | 4.0 | 5.0 | 0.00 | 0.00 | 0.00 | 32 | 1012.3 |
| 20260831024821 | 78 | 139 | 5.0 | 5.0 | 0.00 | 0.00 | 0.00 | 31 | 1012.2 |
| 20260831024423 | 78 | 150 | 4.0 | 6.0 | 0.00 | 0.00 | 0.00 | 31 | 1012.2 |
| 20260831024018 | 78 | 137 | 5.0 | 6.0 | 0.00 | 0.00 | 0.00 | 30 | 1012.3 |
| 20260831023216 | 79 | 128 | 6.0 | 9.0 | 0.00 | 0.00 | 0.00 | 30 | 1012.1 |
| 20260831022815 | 79 | 137 | 7.0 | 9.0 | 0.00 | 0.00 | 0.00 | 29 | 1012.0 |
| 20260831022415 | 80 | 139 | 5.0 | 9.0 | 0.00 | 0.00 | 0.00 | 29 | 1011.9 |
| 20260831022012 | 80 | 135 | 5.0 | 6.0 | 0.00 | 0.00 | 0.00 | 29 | 1012.0 |
| 20260831021611 | 80 | 157 | 4.0 | 8.0 | 0.00 | 0.00 | 0.00 | 28 | 1011.8 |
| 20260831020811 | 81 | 135 | 7.0 | 7.0 | 0.00 | 0.00 | 0.00 | 28 | 1011.8 |
| 20260831015604 | 82 | 137 | 7.0 | 7.0 | 0.00 | 0.00 | 0.00 | 27 | 1011.8 |
| 20260831015206 | 82 | 141 | 8.0 | 9.0 | 0.00 | 0.00 | 0.00 | 26 | 1011.8 |
| 20260831014801 | 83 | 130 | 9.0 | 9.0 | 0.00 | 0.00 | 0.00 | 25 | 1011.8 |
| 20260831014400 | 83 | 119 | 5.0 | 7.0 | 0.00 | 0.00 | 0.00 | 25 | 1011.8 |
| 20260831013959 | 84 | 114 | 6.0 | 9.0 | 0.00 | 0.00 | 0.00 | 25 | 1011.8 |
| 20260831013559 | 84 | 135 | 6.0 | 9.0 | 0.00 | 0.00 | 0.00 | 25 | 1011.9 |
| 20260831012755 | 85 | 135 | 9.0 | 10.0 | 0.00 | 0.00 | 0.00 | 24 | 1011.9 |
| 20260831012354 | 86 | 135 | 9.0 | 9.0 | 0.00 | 0.00 | 0.00 | 24 | 1011.8 |
| 20260831011150 | 88 | 117 | 7.0 | 10.0 | 0.00 | 0.00 | 0.00 | 23 | 1011.7 |
| 20260831010751 | 89 | 160 | 3.0 | 5.0 | 0.00 | 0.00 | 0.00 | 23 | 1011.7 |
| 20260831010347 | 88 | 139 | 3.0 | 9.0 | 0.00 | 0.00 | 0.00 | 23 | 1011.8 |
| 20260831005946 | 88 | 146 | 6.0 | 8.0 | 0.00 | 0.00 | 0.00 | 23 | 1011.8 |
| 20260831005546 | 89 | 135 | 7.0 | 12.0 | 0.00 | 0.00 | 0.00 | 23 | 1011.9 |
| 20260831005144 | 89 | 150 | 7.0 | 11.0 | 0.00 | 0.00 | 0.00 | 22 | 1011.9 |
| 20260831004744 | 90 | 144 | 3.0 | 7.0 | 0.00 | 0.00 | 0.00 | 22 | 1011.9 |
| 20260831004341 | 90 | 135 | 5.0 | 9.0 | 0.00 | 0.00 | 0.00 | 22 | 1011.8 |
| 20260831003939 | 90 | 144 | 9.0 | 9.0 | 0.00 | 0.00 | 0.00 | 22 | 1011.9 |
| 20260831003137 | 91 | 150 | 7.0 | 7.0 | 0.00 | 0.00 | 0.00 | 21 | 1011.8 |
| 20260831002736 | 91 | 164 | 4.0 | 9.0 | 0.00 | 0.00 | 0.00 | 21 | 1011.8 |
| 20260831002335 | 91 | 144 | 6.0 | 10.0 | 0.00 | 0.00 | 0.00 | 20 | 1011.7 |
| 20260831001935 | 93 | 141 | 5.0 | 7.0 | 0.00 | 0.00 | 0.00 | 20 | 1011.8 |
| 20260831001532 | 93 | 180 | 8.0 | 9.0 | 0.00 | 0.00 | 0.00 | 20 | 1011.8 |
| 20260831001131 | 93 | 177 | 6.0 | 6.0 | 0.00 | 0.00 | 0.00 | 20 | 1011.7 |
| 20260831000730 | 93 | 171 | 4.0 | 7.0 | 0.00 | 0.00 | 0.00 | 20 | 1011.8 |
| 20260831000329 | 93 | 182 | 4.0 | 7.0 | 0.00 | 0.00 | 0.00 | 20 | 1011.8 |
| 20260830235927 | 93 | 155 | 6.0 | 9.0 | 0.00 | 0.00 | 0.00 | 20 | 1011.8 |
| 20260830235529 | 93 | 177 | 4.0 | 8.0 | 0.00 | 0.00 | 0.00 | 20 | 1011.8 |
| 20260830234322 | 96 | 165 | 3.0 | 8.0 | 0.00 | 0.00 | 0.00 | 19 | 1011.8 |
| 20260830233921 | 97 | 155 | 6.0 | 9.0 | 0.00 | 0.00 | 0.00 | 19 | 1011.8 |
| 20260830233119 | 98 | 162 | 6.0 | 8.0 | 0.00 | 0.00 | 0.00 | 20 | 1011.8 |
| 20260830232716 | 99 | 195 | 4.0 | 9.0 | 0.00 | 0.00 | 0.00 | 20 | 1012.0 |
| 20260830232315 | 100 | 184 | 7.0 | 8.0 | 0.00 | 0.00 | 0.00 | 20 | 1011.9 |
| 20260830231914 | 100 | 186 | 7.0 | 10.0 | 0.00 | 0.00 | 0.00 | 20 | 1011.9 |